| time (UTC) | temp C | wind direction | speed KPH | gust KPH | rain 1hr cm | rain 24hr cm | rain mn cm | humidity % | barometer mb |
| 20260504110518 | 14 | 293 | 3.2 | 6.4 | 0.00 | 0.51 | 0.18 | 67 | 1018.1 |
| 20260504100518 | 14 | 315 | 3.2 | 8.0 | 0.00 | 1.30 | 0.18 | 67 | 1017.5 |
| 20260504081517 | 16 | 293 | 1.6 | 3.2 | 0.00 | 1.45 | 0.18 | 66 | 1016.2 |
| 20260504080517 | 16 | 315 | 1.6 | 3.2 | 0.00 | 1.45 | 0.18 | 64 | 1016.1 |
| 20260504050517 | 20 | 293 | 4.8 | 12.9 | 0.00 | 2.24 | 0.18 | 50 | 1014.9 |
| 20260504045517 | 20 | 293 | 4.8 | 11.3 | 0.00 | 2.24 | 0.18 | 51 | 1014.8 |
| 20260504044517 | 20 | 315 | 8.0 | 20.9 | 0.00 | 2.24 | 0.18 | 52 | 1014.9 |
| 20260504043517 | 20 | 293 | 4.8 | 11.3 | 0.00 | 2.24 | 0.18 | 54 | 1014.8 |
| 20260504042517 | 20 | 293 | 6.4 | 11.3 | 0.00 | 2.24 | 0.18 | 50 | 1014.9 |
| 20260504041517 | 20 | 315 | 4.8 | 9.7 | 0.00 | 2.24 | 0.18 | 52 | 1014.8 |
| 20260504040517 | 20 | 293 | 3.2 | 9.7 | 0.00 | 2.24 | 0.18 | 54 | 1014.8 |
| 20260504035517 | 20 | 293 | 8.0 | 25.7 | 0.00 | 2.24 | 0.18 | 53 | 1014.8 |
| 20260504034517 | 20 | 293 | 4.8 | 11.3 | 0.00 | 2.24 | 0.18 | 54 | 1014.9 |
| 20260504033517 | 19 | 270 | 6.4 | 16.1 | 0.00 | 2.24 | 0.18 | 55 | 1015.0 |
| 20260504032517 | 20 | 293 | 4.8 | 11.3 | 0.00 | 2.24 | 0.18 | 55 | 1015.0 |
| 20260504031517 | 19 | 270 | 8.0 | 14.5 | 0.00 | 2.24 | 0.18 | 54 | 1015.0 |
| 20260504030517 | 20 | 315 | 6.4 | 12.9 | 0.00 | 2.24 | 0.18 | 53 | 1015.1 |
| 20260504025517 | 19 | 270 | 4.8 | 12.9 | 0.00 | 2.24 | 0.18 | 55 | 1015.2 |
| 20260504024517 | 20 | 315 | 3.2 | 11.3 | 0.00 | 2.24 | 0.18 | 58 | 1015.3 |
| 20260504023517 | 19 | 315 | 3.2 | 9.7 | 0.00 | 2.24 | 0.18 | 56 | 1015.5 |
| 20260504022517 | 19 | 293 | 4.8 | 9.7 | 0.00 | 2.24 | 0.18 | 54 | 1015.7 |
| 20260504021516 | 19 | 293 | 3.2 | 11.3 | 0.00 | 2.24 | 0.18 | 55 | 1015.8 |
| 20260504020517 | 19 | 315 | 3.2 | 9.7 | 0.00 | 2.24 | 0.18 | 58 | 1016.0 |
| 20260504015516 | 18 | 315 | 1.6 | 6.4 | 0.00 | 2.24 | 0.18 | 63 | 1016.0 |
| 20260504014516 | 18 | 0 | 3.2 | 9.7 | 0.00 | 2.24 | 0.18 | 63 | 1016.2 |
| 20260504013516 | 18 | 315 | 1.6 | 4.8 | 0.00 | 2.24 | 0.18 | 68 | 1016.3 |
| 20260504012516 | 17 | 315 | 3.2 | 4.8 | 0.00 | 2.24 | 0.18 | 70 | 1016.3 |
| 20260504011517 | 17 | 315 | 1.6 | 6.4 | 0.00 | 2.24 | 0.18 | 73 | 1016.5 |
| 20260504010516 | 17 | 315 | 3.2 | 6.4 | 0.00 | 2.24 | 0.18 | 77 | 1016.5 |
| 20260504005516 | 17 | 0 | 1.6 | 4.8 | 0.00 | 2.24 | 0.18 | 81 | 1016.6 |
| 20260504004516 | 16 | 293 | 3.2 | 6.4 | 0.00 | 2.24 | 0.18 | 83 | 1016.6 |
| 20260504003518 | 16 | 315 | 3.2 | 8.0 | 0.00 | 2.24 | 0.18 | 84 | 1016.7 |
| 20260504002518 | 16 | 315 | 3.2 | 4.8 | 0.00 | 2.24 | 0.18 | 86 | 1016.8 |
| 20260504001518 | 16 | 315 | 3.2 | 8.0 | 0.00 | 2.24 | 0.18 | 87 | 1016.7 |
| 20260504000518 | 15 | 0 | 3.2 | 6.4 | 0.00 | 2.24 | 0.18 | 89 | 1016.7 |
| 20260503235518 | 15 | 0 | 3.2 | 6.4 | 0.00 | 2.24 | 0.18 | 92 | 1016.7 |
| 20260503234518 | 15 | 0 | 1.6 | 6.4 | 0.00 | 2.24 | 0.18 | 94 | 1016.7 |
| 20260503233518 | 14 | 315 | 1.6 | 4.8 | 0.03 | 2.24 | 0.18 | 95 | 1016.7 |
| 20260503232519 | 13 | 315 | 1.6 | 4.8 | 0.03 | 2.24 | 0.18 | 95 | 1016.7 |
| 20260503231518 | 13 | 338 | 1.6 | 4.8 | 0.03 | 2.24 | 0.18 | 95 | 1016.7 |
| 20260503230518 | 13 | 315 | 1.6 | 4.8 | 0.03 | 2.24 | 0.18 | 95 | 1016.8 |
| 20260503225518 | 13 | 338 | 1.6 | 3.2 | 0.03 | 2.24 | 0.18 | 95 | 1016.7 |
| 20260503224518 | 12 | 338 | 1.6 | 6.4 | 0.03 | 2.24 | 0.18 | 95 | 1016.6 |
| 20260503223518 | 12 | 315 | 1.6 | 4.8 | 0.00 | 2.21 | 0.15 | 95 | 1016.5 |
| 20260503222518 | 12 | 315 | 1.6 | 4.8 | 0.00 | 2.21 | 0.15 | 95 | 1016.5 |
| 20260503221518 | 12 | 0.0 | 3.2 | 0.00 | 2.21 | 0.15 | 95 | 1016.4 | |
| 20260503220518 | 11 | 0.0 | 3.2 | 0.00 | 2.21 | 0.15 | 95 | 1016.4 | |
| 20260503215518 | 11 | 0.0 | 3.2 | 0.00 | 2.21 | 0.15 | 94 | 1016.4 | |
| 20260503214518 | 11 | 0.0 | 3.2 | 0.00 | 2.24 | 0.15 | 94 | 1016.3 | |
| 20260503213518 | 11 | 0.0 | 3.2 | 0.00 | 2.24 | 0.15 | 94 | 1016.2 | |
| 20260503212518 | 11 | 0.0 | 1.6 | 0.00 | 2.26 | 0.15 | 94 | 1016.1 | |
| 20260503211518 | 11 | 0.0 | 0.0 | 0.00 | 2.26 | 0.15 | 93 | 1015.9 | |
| 20260503210518 | 11 | 0.0 | 3.2 | 0.00 | 2.26 | 0.15 | 93 | 1015.9 | |
| 20260503205518 | 11 | 0.0 | 3.2 | 0.00 | 2.26 | 0.15 | 93 | 1015.9 | |
| 20260503204518 | 11 | 0.0 | 0.0 | 0.00 | 2.26 | 0.15 | 93 | 1015.8 | |
| 20260503203518 | 11 | 0.0 | 0.0 | 0.00 | 2.26 | 0.15 | 93 | 1015.6 | |
| 20260503202518 | 11 | 0.0 | 0.0 | 0.00 | 2.26 | 0.15 | 93 | 1015.6 | |
| 20260503201518 | 11 | 0.0 | 3.2 | 0.00 | 2.26 | 0.15 | 93 | 1015.4 | |
| 20260503200518 | 11 | 0.0 | 3.2 | 0.00 | 2.26 | 0.15 | 93 | 1015.3 | |
| 20260503195518 | 11 | 0.0 | 0.0 | 0.00 | 2.26 | 0.15 | 93 | 1015.3 | |
| 20260503194518 | 11 | 0.0 | 0.0 | 0.00 | 2.26 | 0.15 | 93 | 1015.4 | |
| 20260503193518 | 11 | 0.0 | 1.6 | 0.00 | 2.26 | 0.15 | 93 | 1015.4 | |
| 20260503192518 | 11 | 0.0 | 3.2 | 0.00 | 2.26 | 0.15 | 93 | 1015.2 | |
| 20260503191517 | 12 | 0.0 | 0.0 | 0.00 | 2.26 | 0.15 | 93 | 1015.2 | |
| 20260503190518 | 12 | 0.0 | 0.0 | 0.00 | 2.26 | 0.15 | 93 | 1015.2 | |
| 20260503185518 | 12 | 0.0 | 0.0 | 0.00 | 2.26 | 0.15 | 93 | 1015.1 | |
| 20260503184517 | 12 | 0.0 | 0.0 | 0.00 | 2.26 | 0.15 | 93 | 1014.9 | |
| 20260503183517 | 12 | 0.0 | 0.0 | 0.00 | 2.26 | 0.15 | 93 | 1015.0 | |
| 20260503182518 | 12 | 0.0 | 1.6 | 0.00 | 2.26 | 0.15 | 93 | 1014.9 | |
| 20260503181517 | 12 | 0.0 | 1.6 | 0.00 | 2.26 | 0.15 | 93 | 1014.8 | |
| 20260503180517 | 12 | 0.0 | 3.2 | 0.00 | 2.26 | 0.15 | 93 | 1015.1 | |
| 20260503175517 | 12 | 0.0 | 3.2 | 0.00 | 2.26 | 0.15 | 93 | 1015.2 | |
| 20260503174517 | 12 | 0.0 | 1.6 | 0.00 | 2.26 | 0.15 | 93 | 1015.2 | |
| 20260503173517 | 12 | 0.0 | 3.2 | 0.00 | 2.26 | 0.15 | 93 | 1015.3 | |
| 20260503172517 | 12 | 0.0 | 3.2 | 0.00 | 2.26 | 0.15 | 93 | 1015.2 | |
| 20260503171517 | 12 | 0.0 | 3.2 | 0.00 | 2.26 | 0.15 | 93 | 1015.1 | |
| 20260503170517 | 12 | 0.0 | 3.2 | 0.00 | 2.26 | 0.15 | 93 | 1015.1 | |
| 20260503150517 | 13 | 0.0 | 3.2 | 0.15 | 2.24 | 0.15 | 93 | 1015.7 | |
| 20260503130516 | 13 | 0.0 | 3.2 | 0.05 | 1.98 | 1.98 | 92 | 1015.7 |